Regional Weather Roundup
Issued by NWS

Home | Current Version | Previous Version | Graphics & Text | Print | Product List | Glossary On
Versions: 1 2 3 4 5 6 7 8 9 10 11 12 13 14 15 16 17 18 19 20 21 22 23 24 25 26 27 28 29 30 31 32 33 34 35 36 37 38 39 40 41 42 43 44 45 46 47 48 49 50
000
ASUS43 KDMX 231108
RWRIA

WEATHER ROUNDUP FOR IOWA
NATIONAL WEATHER SERVICE DES MOINES IA
600 AM CDT SAT JUL 23 2016

NOTE: "FAIR" INDICATES FEW OR NO CLOUDS BELOW 12,000 FEET WITH NO
SIGNIFICANT WEATHER AND/OR OBSTRUCTIONS TO VISIBILITY.

* - THESE STATIONS ARE NOT NWS STATIONS...THUS NOT UNDER NWS
QUALITY CONTROL.  THEY ALSO DO NOT REPORT WEATHER SUCH
AS PRECIPITATION OR FOG.

IAZ001>003-012>014-020>022-031>034-043>046-231200-
   NORTHWEST IOWA

CITY           SKY/WX    TMP DP  RH WIND       PRES   REMARKS
CARROLL *      CLOUDY    77  75  94 CALM      29.87F
CHEROKEE *     CLOUDY    78  77  98 SE5       29.86F HX  80
DENISON *      MOCLDY    81  72  74 SW12      29.86S HX  84
LE MARS *      CLOUDY    79  77  94 S7        29.84F HX  83
SHELDON *      CLOUDY    77  77 100 E7        29.85F
SIOUX CITY     CLOUDY    81  76  84 S7        29.83F HX  87
SPENCER        CLOUDY    78  75  90 E9        29.87F HX  81
STORM LAKE *   CLOUDY    77  77 100 CALM      29.89F
$$

IAZ055>058-069>071-079>083-090>094-231200-
   SOUTHWEST IOWA

CITY           SKY/WX    TMP DP  RH WIND       PRES   REMARKS
ATLANTIC *     MOCLDY    81  75  83 S9        29.88F HX  86
CLARINDA *       N/A     79  75  89 MISG      29.91F HX  82
COUNCIL BLFS *   N/A     82  72  69 SW14      29.89R HX  87
CRESTON *      CLOUDY    79  75  89 S8        29.94S HX  82
HARLAN  *      CLOUDY    77  73  88 S10       29.90F
LAMONI         CLOUDY    77  76  96 SW7       29.93S
RED OAK *      PTCLDY    79  73  83 S6        29.88F HX  82
SHENANDOAH *   CLOUDY    79  72  78 S8        29.88S HX  82
$$

IAZ047>049-059>061-072>074-084-231200-
   CENTRAL IOWA

CITY           SKY/WX    TMP DP  RH WIND       PRES   REMARKS
AMES           LGT RAIN  77  77 100 SE5       29.91S
ANKENY *         N/A    N/A N/A N/A MISG        N/A
BOONE *          N/A     77  77 100 S5        29.90F
CHARITON *       N/A    N/A N/A N/A MISG        N/A
DES MOINES     CLOUDY    79  76  90 S5        29.91S HX  83
GRINNELL*      CLOUDY    76  73  92 S6        29.94S
KNOXVILLE *    CLOUDY    77  75  94 SE6       29.92S
MARSHALLTOWN   MOCLDY    77  76  96 NE5       29.92S
NEWTON *       PTCLDY    75  75 100 S6        29.93S
PELLA *        PTCLDY    75  74  94 SE3       29.94S
PERRY *          N/A     77  76  98 SE6       29.89F
$$

IAZ004>006-015-016-023>025-035-036-231200-
   NORTH CENTRAL IOWA

CITY           SKY/WX    TMP DP  RH WIND       PRES   REMARKS
ALGONA *       CLOUDY    77  77 100 SE9       29.90F
ESTHERVILLE    PTCLDY    75  75 100 E6        29.88F
FORT DODGE *   CLOUDY    77  75  94 E7        29.91F
MASON CITY     PTCLDY    76  75  97 SE6       29.95F
FOREST CITY *    N/A     73  73 100 E8        29.92F
IOWA FALLS *   MOCLDY    77  75  93 E3        29.95S
$$

IAZ007>011-017>019-026>030-037>042-050>054-066-231200-
   NORTHEAST IOWA

CITY           SKY/WX    TMP DP  RH WIND       PRES   REMARKS
CEDAR RAPIDS   CLOUDY    76  76 100 E6        29.95F
CHARLES CITY *   N/A     77  77 100 E7        29.96F
CLINTON *      MOCLDY    74  73  97 NE5       29.98S FOG
DECORAH *      MOCLDY    77  77 100 CALM      29.97F FOG
DUBUQUE        CLOUDY    76  75  97 CALM      30.00R
MONTICELLO *   CLEAR     75  73  94 CALM      29.97F FOG
OELWEIN *        N/A     75  75 100 SE5       29.97F
WATERLOO       CLOUDY    77  75  93 E5        29.94S THUNDER
$$

IAZ064-065-067-068-078-231200-
   EAST CENTRAL IOWA

CITY           SKY/WX    TMP DP  RH WIND       PRES   REMARKS
DAVENPORT      CLEAR     74  73  97 E5        29.97F FOG
IOWA CITY      MOCLDY    76  75  97 VRB3      29.97S
MT. PLEASANT * FOG       77  77 100 CALM      29.96S VSB 1/2
MUSCATINE *    FOG       73  73 100 CALM      29.96S VSB<1/4
QUAD CITIES    CLEAR     75  73  93 E5        29.96F
$$

IAZ062-063-075>077-085>089-095>099-231200-
   SOUTHEAST IOWA

CITY           SKY/WX    TMP DP  RH WIND       PRES   REMARKS
BURLINGTON     PTCLDY    74  74 100 SE3       29.96S FOG
FAIRFIELD *    CLEAR     77  75  94 SE5       29.95S
KEOKUK *       CLEAR     75  75 100 CALM      29.96R
CENTERVILLE *    N/A     75  75 100 CALM      29.96S
OTTUMWA        CLEAR     77  74  90 S6        29.94S
WASHINGTON *   FOG       73  73 100 E3        29.96F VSB<1/4
$$

ABBREVIATIONS USED IN REMARKS
   TC - TEMPERATURES IN CELSIUS
  WCI - WIND CHILL INDEX
   HX - HEAT INDEX
  VSB - VISIBILITY
$$




USA.gov is the U.S. government's official web portal to all federal, state and local government web resources and services.